Tracking 23758 objects as of 28-Oct-2021
HD Live streaming from Space Station
objects crossing your sky now

SKYSAT C13

Track SKYSAT C13 now!
10-day predictions


NORAD ID: 43802
Int'l Code: 2018-099AW
Perigee: 464.3 km
Apogee: 472.7 km
Inclination: 97.2 °
Period: 93.8 minutes
Semi major axis: 6839 km
RCS: Unknown
Launch date: December 3, 2018
Source: United States (US)
Launch site: AIR FORCE WESTERN TEST RANGE (AFWTR)
aabbcc
Your satellite tracking list
Your tracking list is empty




NASA's NSSDC Master Catalog

Two Line Element Set (TLE):
1 43802U 18099AW  21300.18036410  .00003499  00000-0  10579-3 0  9993
2 43802  97.1882   6.2970 0006136  59.9958 300.1894 15.34851660161157
Source of the keplerian elements: AFSPC